Theta_e
351 350 349 348 347 347 347 349 350 351 352 350 348 346 345 345 343 341 344 344 342 344 344 346 348 345 347 348 348 348 348 347 348 350 350 349 344 341 343 344 344 343 343 344 344 344 345 345 343 344 346 345 344 346 347 346 345 347 348 349 352 352 348 346 345 346 344 344 345 344 344 345 345 346 347 345 344 343 343 344 345 344 345 346 347
350 350 349 349 348 349 350 351 351 352 352 350 350 348 346 347 345 342 344 344 344 344 343 345 347 347 348 350 350 350 349 349 352 352 352 348 343 343 344 344 344 344 343 345 345 344 344 344 342 343 344 344 342 342 344 344 344 347 351 352 352 350 348 346 345 345 344 344 345 344 344 344 346 346 343 343 342 342 342 342 343 343 343 345 346
350 350 350 349 349 350 351 351 351 352 352 351 351 349 345 348 346 342 343 344 345 345 343 343 345 347 349 350 352 351 351 352 352 351 352 349 345 344 345 344 344 344 344 345 346 345 343 343 343 343 343 343 344 343 343 344 345 348 352 353 352 350 347 347 345 345 345 345 345 346 345 343 345 345 342 341 341 340 341 340 341 342 341 344 345
351 350 349 349 350 352 351 353 352 352 353 352 351 349 347 346 343 342 342 343 345 345 343 344 345 347 348 349 351 351 351 350 347 346 348 348 346 344 344 344 344 344 345 345 346 345 343 343 344 344 343 343 344 344 345 348 348 350 351 351 353 350 347 346 346 345 346 347 347 347 346 344 344 344 342 342 339 339 341 339 341 342 342 344 345
351 349 348 349 350 352 352 353 352 352 352 353 352 351 350 347 342 341 342 342 344 344 344 345 345 347 347 347 348 348 348 346 346 347 345 344 345 345 343 343 344 344 345 346 346 346 344 345 345 344 344 343 344 348 350 350 351 351 350 350 353 351 348 346 346 347 345 346 348 348 347 346 346 345 343 343 341 340 340 340 341 342 342 343 344
351 349 349 350 351 352 352 353 353 352 352 353 352 351 352 350 343 341 341 342 344 345 345 345 345 346 347 347 347 349 349 348 350 351 349 346 348 348 344 342 343 344 344 346 346 346 346 346 346 345 345 343 345 347 348 348 351 353 351 351 353 350 349 347 345 347 347 346 347 348 348 348 348 348 345 343 342 342 341 340 341 342 341 342 344
351 350 348 348 350 351 352 353 352 352 351 352 352 351 352 349 343 341 342 342 344 345 346 345 344 345 346 349 351 352 353 352 352 353 352 351 350 347 344 343 342 343 344 344 345 346 346 346 346 346 346 345 343 343 346 351 353 351 349 350 349 347 350 349 346 348 349 348 348 348 348 348 348 348 347 346 344 343 343 342 341 341 341 342 342
350 349 349 348 349 350 352 352 352 351 351 352 351 352 352 346 341 342 341 342 344 344 345 345 344 344 344 350 353 353 353 353 352 352 353 351 350 347 345 344 343 343 344 344 344 346 346 346 346 345 346 346 343 343 348 351 348 345 345 346 345 345 348 350 349 348 348 348 349 349 348 348 348 347 347 347 346 344 343 342 342 342 342 343 342
350 349 348 348 348 350 351 351 351 351 351 350 350 352 352 345 340 342 341 342 343 342 343 343 343 343 344 348 352 352 353 354 353 353 352 350 349 348 345 345 344 343 343 344 345 346 346 346 346 345 346 346 346 349 350 348 344 343 344 345 346 346 346 348 349 349 349 349 350 350 349 349 348 347 346 346 346 346 344 343 343 342 342 343 343
351 350 348 348 349 349 349 350 350 350 351 351 350 351 351 346 340 342 342 342 342 342 342 342 342 344 344 346 348 349 351 352 353 352 349 346 346 346 344 345 345 343 343 342 343 345 346 347 347 345 345 344 346 350 349 346 344 343 343 345 346 346 344 346 349 351 349 350 350 350 350 350 349 348 347 345 345 346 345 343 343 343 342 343 343
350 350 349 348 348 348 349 348 350 350 350 351 350 349 352 348 342 342 343 342 343 342 341 341 342 343 344 343 345 347 348 348 349 348 346 345 346 345 345 346 346 345 345 343 342 343 345 347 348 347 346 344 343 345 348 349 349 348 346 344 345 345 344 344 347 350 350 349 350 350 349 348 349 348 347 347 346 346 346 344 344 343 343 343 344
352 350 349 349 349 348 348 348 350 351 351 351 350 349 351 350 343 342 344 343 343 343 341 341 341 343 343 343 344 346 347 346 347 347 346 347 348 348 346 346 345 344 344 343 343 343 343 345 346 347 347 344 342 343 347 349 351 352 348 343 344 345 344 344 346 350 350 348 349 350 349 348 349 348 348 347 347 347 347 345 344 344 344 345 345
353 351 350 350 349 349 349 349 351 353 352 352 351 349 351 350 343 341 344 344 344 343 341 341 342 342 343 343 344 344 345 346 346 347 348 348 350 349 347 347 345 343 343 342 343 345 343 342 343 345 347 345 344 344 345 345 346 349 347 345 347 345 344 345 345 348 350 350 350 350 348 348 348 348 348 346 347 346 346 346 346 344 344 345 346
353 351 350 349 350 350 350 350 352 354 354 353 351 350 352 349 342 341 343 344 345 344 341 341 341 342 342 343 343 343 344 345 347 351 352 351 350 350 351 351 349 346 345 342 343 346 344 343 343 345 347 346 345 344 345 343 344 345 344 346 349 347 343 344 344 347 350 349 350 351 349 348 348 348 348 347 347 346 346 347 348 347 344 344 346
353 352 351 350 350 351 351 351 353 355 354 353 353 352 352 348 342 341 342 344 346 345 343 342 342 342 341 342 343 344 344 346 347 351 352 353 352 351 351 352 353 352 349 345 344 344 344 344 344 345 345 346 345 345 345 344 343 344 343 343 348 347 342 343 346 348 351 349 349 350 349 348 348 348 348 348 347 348 348 349 348 348 346 345 346
352 353 352 351 350 351 352 352 353 354 353 353 354 353 352 347 342 341 342 342 344 346 345 344 343 342 341 341 342 343 343 346 347 346 348 350 352 352 350 350 352 353 350 345 344 344 344 344 345 346 345 345 346 345 345 345 344 345 345 343 346 350 347 344 347 349 350 350 349 348 347 347 349 349 348 349 349 348 349 350 349 349 349 347 346
351 352 352 351 351 352 352 352 353 353 353 353 353 351 348 346 343 342 342 342 343 345 346 346 344 343 342 342 342 342 342 346 348 348 349 351 349 349 352 352 351 351 350 349 347 345 344 344 345 347 346 345 346 346 345 346 345 345 347 344 347 353 350 345 348 352 352 352 351 350 349 349 350 350 349 349 349 348 350 350 350 350 350 348 347
351 352 350 350 351 352 353 353 352 353 353 352 350 347 345 344 344 343 342 342 342 345 346 347 347 345 343 342 341 341 344 349 352 351 352 354 350 348 353 353 352 352 351 351 349 346 344 344 345 346 346 345 346 347 346 345 345 346 348 346 345 349 347 345 346 349 352 353 353 352 351 350 351 350 350 351 350 349 349 350 350 351 351 350 349
352 351 349 348 348 350 351 352 352 353 353 352 347 344 343 345 345 344 344 344 344 348 350 348 347 347 346 345 342 340 344 349 352 353 353 353 352 351 352 353 355 353 350 347 347 347 346 344 344 345 347 346 345 347 347 345 345 348 351 350 349 347 343 344 346 348 352 353 351 351 351 350 351 350 350 350 350 350 349 350 351 351 352 351 350
353 350 349 348 347 347 349 350 351 351 352 351 348 343 342 344 344 344 345 345 345 348 351 349 348 350 349 348 344 341 341 344 348 351 352 352 352 352 353 352 354 355 352 348 347 349 349 347 348 349 351 351 348 349 351 347 344 347 352 354 356 352 345 345 349 351 355 353 348 347 348 348 350 350 350 351 352 352 351 350 350 351 351 351 352
353 351 349 349 348 347 347 347 347 350 352 352 349 346 345 345 346 346 344 344 343 347 351 350 349 350 350 348 346 344 342 343 346 348 349 351 352 352 352 353 353 354 354 352 350 349 348 347 351 352 353 353 349 347 351 350 346 344 347 351 354 352 346 348 351 350 353 353 348 345 346 346 347 348 351 352 352 352 353 351 352 352 351 352 353
353 352 350 349 348 347 347 345 344 347 351 352 351 349 350 348 348 349 348 344 343 347 352 350 348 349 348 348 348 348 347 344 346 348 349 349 351 351 351 353 353 353 353 354 353 352 349 348 351 352 351 350 347 343 347 352 350 346 346 350 353 350 347 349 350 346 346 349 347 345 345 346 347 347 349 352 353 353 354 353 353 354 354 354 354
352 352 350 349 348 348 347 346 343 343 345 346 347 347 348 347 347 348 348 345 342 346 350 351 348 346 347 347 348 350 349 347 347 348 348 349 349 350 350 351 352 352 352 353 353 354 352 347 348 349 346 346 345 343 347 351 350 346 346 350 354 354 351 351 351 349 348 349 348 347 347 350 353 354 353 354 355 355 355 355 355 355 355 355 355
352 352 351 348 347 347 347 347 345 344 342 342 343 342 342 344 343 342 344 345 344 344 348 349 346 344 346 349 349 349 349 349 348 348 348 349 348 349 350 351 350 350 352 352 353 355 353 346 346 346 344 344 345 344 346 349 348 346 345 346 349 349 348 350 353 354 353 352 352 350 351 353 355 354 353 353 355 356 356 356 355 356 355 354 355
352 352 351 350 348 347 347 346 346 346 345 343 343 342 341 342 342 342 344 345 343 344 346 347 345 344 346 348 350 349 349 349 349 347 348 348 347 347 348 350 350 349 350 352 352 354 352 347 346 349 347 345 345 345 345 348 350 350 347 348 349 347 345 347 349 349 348 349 350 351 353 354 354 354 353 354 356 356 356 355 356 356 356 355 354
351 351 351 351 350 348 347 346 344 345 345 344 344 344 344 343 343 343 345 346 343 342 344 345 346 346 345 346 348 349 349 349 348 348 348 348 348 347 347 348 348 348 349 351 352 354 352 348 347 350 351 349 347 346 345 345 350 354 352 351 352 349 348 347 347 348 347 347 348 349 350 351 352 353 354 355 355 354 354 355 355 354 353 353 352
350 350 350 351 351 350 349 348 347 346 345 345 345 344 345 345 345 344 344 344 343 343 343 343 344 346 346 345 346 347 348 349 350 349 348 348 347 347 347 348 348 347 348 349 351 353 353 351 347 348 352 351 347 347 346 343 346 353 354 354 354 353 352 351 350 351 351 352 351 351 351 350 351 350 351 354 354 354 355 355 354 353 352 351 350
349 349 349 350 350 350 350 350 349 350 349 350 348 347 345 345 346 345 344 344 345 345 344 343 343 344 344 344 346 346 346 346 348 349 349 349 349 348 348 348 348 349 348 347 349 351 352 352 351 350 351 351 348 347 347 343 344 348 352 354 354 354 354 354 353 352 352 354 354 355 354 354 354 352 350 351 353 354 354 355 354 352 350 349 348
347 347 348 348 348 348 349 350 350 351 351 353 352 351 351 349 348 347 345 345 345 345 344 344 345 345 344 343 344 345 345 344 345 346 348 349 350 350 349 350 350 350 348 347 348 350 351 352 352 352 351 351 351 350 351 350 348 349 351 354 354 354 354 355 354 353 353 354 353 354 353 353 355 352 346 343 345 346 346 348 350 349 347 346 347
346 345 346 346 346 347 348 349 350 350 351 352 352 352 352 352 351 350 349 348 347 346 345 345 345 347 346 345 344 343 343 344 344 345 346 347 348 349 348 348 349 349 349 349 348 349 351 351 351 352 351 350 351 352 352 350 349 350 352 354 355 354 354 354 354 353 353 353 352 352 352 352 349 344 338 337 338 338 337 340 342 342 342 342 343
344 344 344 344 344 345 345 346 348 349 349 351 351 352 352 352 352 352 351 351 350 349 348 346 345 346 347 346 345 343 343 345 345 346 346 346 346 348 348 346 344 345 346 347 346 348 350 351 351 351 350 350 350 351 351 347 345 347 349 352 354 354 352 351 352 352 352 352 352 351 351 351 347 342 342 342 340 339 338 337 336 337 337 338 338
344 343 343 344 344 345 345 346 347 348 348 349 350 350 351 351 352 352 352 351 351 351 349 349 347 347 347 346 344 343 342 344 345 346 346 346 346 348 349 346 342 342 343 343 343 345 346 349 351 351 349 350 350 350 350 347 344 345 345 347 352 354 353 352 352 353 352 352 352 352 351 350 349 349 349 347 343 342 340 339 337 337 336 335 335
342 342 342 343 344 344 345 346 347 347 347 348 349 349 350 351 350 351 351 352 351 351 351 350 350 350 350 348 345 343 342 342 343 344 345 346 345 347 349 348 344 341 342 343 343 344 343 345 349 351 351 351 350 350 350 348 346 346 346 345 347 350 353 354 354 355 354 353 353 353 352 351 351 350 348 346 344 343 342 342 342 341 339 339 339
341 341 341 341 342 343 344 345 345 346 346 347 347 348 348 349 349 349 350 350 350 350 350 350 350 350 351 349 347 346 345 344 344 344 345 345 345 346 348 350 348 345 346 345 345 347 347 344 345 348 350 350 351 350 350 348 346 347 347 346 345 347 350 353 354 354 354 354 353 351 349 349 350 350 347 345 345 346 345 345 345 345 344 343 342
339 339 339 338 339 340 341 340 340 341 343 344 344 344 345 346 346 347 348 348 348 349 349 349 350 349 350 349 349 348 348 347 345 345 345 344 344 345 347 349 349 349 350 351 350 351 352 349 346 346 347 349 349 347 347 347 346 346 347 346 346 345 347 351 353 352 350 349 349 346 345 346 347 347 346 344 345 346 346 346 346 346 345 347 348
337 337 336 337 337 337 337 337 337 338 339 340 340 340 340 342 343 344 344 344 345 346 346 346 347 348 348 349 349 350 350 349 349 348 348 347 345 346 346 348 350 350 350 352 352 352 353 353 352 351 351 350 346 343 344 344 344 345 346 346 347 346 347 349 351 350 345 345 345 344 344 345 344 345 344 344 344 344 345 346 346 346 348 350 351
335 334 334 334 332 331 330 331 332 333 335 337 337 337 337 339 340 341 341 342 343 343 343 344 344 344 346 348 348 349 350 350 350 350 349 348 347 347 347 348 348 350 350 350 351 352 353 355 354 353 353 349 344 342 343 342 343 345 346 346 346 346 346 348 350 349 345 345 346 345 344 346 347 346 344 343 345 345 345 345 345 346 348 349 349
332 331 330 328 326 325 325 325 324 324 326 329 333 335 336 335 335 336 336 337 338 338 338 340 341 341 343 344 346 347 348 349 349 349 349 349 348 348 348 349 348 348 349 350 350 351 352 353 353 352 352 349 347 347 346 345 346 347 347 347 348 347 346 348 350 349 348 348 348 345 346 347 349 348 345 345 345 345 346 346 347 347 347 347 349
330 328 328 327 326 326 326 326 325 324 322 321 322 325 328 328 328 328 328 328 328 328 328 329 332 334 339 341 343 343 344 345 347 347 347 348 348 348 349 349 347 347 349 350 350 350 351 351 351 350 350 350 350 350 349 349 349 349 349 349 349 349 351 352 353 352 353 353 352 349 349 349 349 348 348 347 347 347 347 347 348 347 348 350 351
330 329 328 327 328 328 327 326 326 325 324 320 317 316 317 319 320 320 319 319 320 319 319 320 320 323 328 334 337 338 339 340 343 344 344 345 346 346 347 348 347 347 350 350 350 350 350 349 349 348 347 348 350 350 349 349 349 348 349 350 349 351 353 354 355 354 353 354 353 351 351 351 350 349 349 349 348 348 348 348 348 349 349 351 351
330 329 328 328 328 328 326 325 324 324 323 320 316 313 312 314 315 315 315 315 315 315 315 315 316 316 319 322 326 329 330 331 333 336 339 341 343 342 343 346 346 347 348 348 349 350 350 348 348 348 348 347 349 349 348 349 348 348 349 349 349 351 352 353 353 353 352 352 351 351 350 350 349 349 348 348 348 348 348 348 348 348 348 349 349
330 329 328 328 327 325 324 323 322 322 321 317 312 310 311 312 312 312 313 313 313 313 312 313 313 314 315 316 317 319 321 322 323 325 328 333 336 337 339 341 342 341 341 343 344 345 345 347 348 348 348 348 349 349 349 349 349 349 349 350 350 350 350 351 351 350 349 348 348 348 348 347 347 347 347 346 346 346 346 346 346 347 347 346 344
330 329 328 326 326 325 324 323 321 319 317 314 310 308 310 310 309 309 310 310 310 311 311 311 311 312 313 314 315 316 316 317 317 318 321 323 326 328 330 331 333 336 337 339 340 340 341 343 344 345 346 346 347 347 347 347 347 347 347 347 348 348 348 348 348 347 345 345 346 346 345 345 344 343 342 341 339 338 338 338 337 336 335 332 329
329 327 327 325 322 321 320 319 316 313 312 311 309 308 308 308 307 307 308 308 308 308 309 309 310 312 313 313 314 314 315 314 313 315 317 318 319 321 321 321 327 333 335 336 336 337 338 339 340 340 340 341 342 343 343 343 344 344 344 344 344 345 345 346 345 343 343 343 344 342 341 340 338 334 331 329 329 329 330 329 325 322 321 320 318
327 326 325 323 320 316 316 315 313 311 310 309 308 307 307 307 306 306 306 306 307 307 307 307 308 310 312 314 315 315 315 315 315 317 317 316 318 319 318 320 326 331 333 331 330 330 331 332 334 335 335 336 338 338 340 341 340 339 339 341 341 342 341 341 339 338 338 339 339 338 337 335 333 329 325 324 325 327 330 329 323 318 316 316 317
326 324 322 321 319 316 315 314 313 312 310 308 307 306 306 306 305 305 306 306 306 306 306 306 306 307 309 313 317 319 319 318 319 320 320 320 322 321 320 323 329 330 330 330 330 329 330 331 332 333 334 336 336 336 336 337 335 333 332 333 336 338 337 337 336 334 334 335 336 336 334 332 330 328 325 323 321 321 322 321 317 314 315 319 321
324 322 320 320 319 317 316 315 313 311 310 308 307 306 306 307 309 308 307 306 306 307 307 307 307 306 306 308 311 314 317 319 320 321 322 322 323 324 324 326 329 329 329 331 331 331 331 332 333 333 333 334 335 334 332 330 329 331 332 331 333 335 334 334 334 333 333 334 334 333 330 328 324 322 320 317 315 313 313 314 313 315 321 327 327
322 320 320 320 318 317 316 315 312 310 308 308 308 307 306 308 310 310 307 305 306 307 307 307 308 308 306 306 307 310 312 315 314 314 316 318 320 322 325 326 328 329 330 331 331 330 330 330 331 331 330 328 329 331 331 329 329 332 334 333 333 333 333 333 333 332 329 328 326 324 320 317 314 312 310 309 310 313 313 313 313 317 324 330 331
321 319 318 318 317 316 316 314 311 309 308 307 307 307 306 307 307 307 306 306 305 306 308 310 313 314 312 311 313 314 314 315 313 308 306 309 312 315 318 320 323 326 328 328 329 330 329 328 328 329 327 325 326 329 331 331 331 332 332 332 331 331 331 330 327 324 320 318 314 311 311 314 316 317 317 318 321 326 326 325 326 327 328 332 336
320 318 317 316 316 316 316 313 310 308 307 306 307 307 307 308 307 306 306 306 305 309 313 315 316 316 315 316 318 316 312 313 316 315 311 308 306 307 310 312 315 317 320 322 324 325 325 325 326 327 326 325 326 328 328 328 329 327 326 325 323 321 320 317 315 313 310 308 307 309 315 321 324 325 328 330 331 333 333 332 334 333 331 333 335
320 318 317 317 317 317 315 312 309 308 307 307 308 307 308 308 308 307 307 306 305 309 314 315 312 310 309 312 315 315 310 308 311 313 313 312 311 308 305 305 307 309 310 312 313 315 316 317 318 319 320 320 319 320 319 318 317 316 314 313 311 310 309 308 308 307 305 308 315 320 324 327 327 328 330 331 331 331 332 332 333 333 333 334 333
Wind_Speed
16 16 17 16 16 15 14 14 14 13 13 13 12 11 12 12 12 13 12 12 11 11 12 11 10 11 11 9 8 9 9 9 8 7 7 7 8 9 8 8 8 8 8 7 7 7 7 7 7 7 6 6 6 5 4 4 4 4 4 6 6 4 5 5 5 5 5 6 7 7 7 6 5 5 4 3 4 4 4 5 6 5 6 7 8
16 16 17 16 16 16 15 14 14 14 14 13 13 12 12 12 12 13 13 13 12 11 12 12 11 11 10 9 8 8 8 8 7 6 6 7 9 9 8 8 8 8 7 7 7 7 7 8 8 7 6 5 5 4 4 3 4 4 4 4 5 5 6 6 6 6 5 6 7 7 7 7 6 5 5 5 4 5 5 4 5 6 6 6 7
17 17 18 17 17 17 15 15 15 14 13 14 13 13 13 13 13 14 13 13 12 11 12 12 11 10 10 9 8 7 7 7 7 8 7 7 9 9 8 9 8 8 8 7 7 7 8 8 7 7 6 5 4 4 4 3 3 5 4 4 5 5 6 7 8 7 6 5 6 7 6 7 7 6 6 6 5 5 5 5 5 5 6 6 7
18 18 18 18 17 17 16 15 15 14 13 14 14 14 14 14 14 14 14 13 12 12 11 11 11 11 10 10 9 8 7 8 8 8 8 8 8 9 9 9 9 9 8 8 7 7 8 8 7 7 6 6 6 6 6 4 3 4 4 5 5 5 5 6 7 8 7 6 5 5 5 6 7 6 7 6 6 6 5 5 5 5 6 6 7
18 19 19 18 18 17 17 15 15 15 14 14 14 14 14 14 14 15 15 14 13 12 12 12 11 10 10 10 10 9 8 8 8 7 8 8 8 8 8 9 9 9 8 8 7 7 7 7 7 7 6 6 6 6 5 4 4 3 3 5 5 5 5 5 6 7 9 10 7 5 5 6 6 5 6 6 6 6 6 5 5 5 5 6 7
18 19 19 19 18 18 17 16 15 15 15 14 14 14 14 14 14 14 15 14 13 13 13 12 12 10 9 9 9 8 7 7 6 6 6 7 7 7 8 8 9 8 8 8 7 7 7 6 7 7 6 6 7 6 5 4 4 2 3 4 4 5 6 5 6 6 8 10 9 7 7 6 6 5 5 6 5 5 5 5 6 5 5 6 6
18 19 20 20 19 18 17 17 16 15 15 14 14 14 14 15 15 14 14 14 13 13 13 13 12 11 10 9 8 7 7 6 6 6 5 6 6 7 7 8 8 8 8 8 7 7 7 7 7 7 7 6 6 7 6 4 3 3 3 3 3 5 6 5 5 5 6 7 7 7 7 7 7 7 5 5 5 5 4 5 6 5 5 6 5
19 19 20 20 20 19 18 17 16 15 15 15 15 14 15 16 15 14 14 13 13 13 13 13 12 12 11 10 8 8 6 6 7 6 6 6 6 7 7 7 8 8 8 8 8 7 7 7 7 7 7 7 7 6 5 4 4 4 3 3 4 4 4 4 4 4 4 5 5 5 6 6 7 7 7 5 4 4 5 5 5 6 6 6 5
19 19 20 20 20 19 18 17 16 15 15 15 15 15 16 17 16 16 15 13 13 12 12 13 11 11 11 11 9 8 7 6 6 6 6 7 6 7 8 7 8 9 9 9 8 8 7 7 7 7 7 7 6 5 4 5 5 4 3 3 3 2 2 2 3 4 4 4 4 5 5 5 5 5 5 5 4 4 4 5 4 4 5 5 5
18 18 20 20 20 20 18 17 16 15 15 15 15 15 15 17 18 17 16 14 13 12 12 12 11 11 11 11 11 9 8 7 7 7 7 8 7 7 7 7 7 8 8 9 9 9 8 7 7 7 7 7 7 6 5 5 4 4 3 3 2 2 2 1 1 2 2 2 2 4 5 4 4 4 4 4 4 3 2 3 4 3 3 3 4
20 19 19 20 20 20 19 18 17 16 15 14 15 15 15 16 18 18 17 16 14 13 13 12 12 12 12 12 11 10 9 9 8 7 7 7 7 6 6 7 7 7 8 9 10 9 9 8 7 7 7 7 7 7 5 4 3 3 3 3 3 2 2 2 1 1 1 0 1 1 2 3 3 3 3 3 3 2 1 2 3 2 2 3 3
20 20 20 20 20 20 19 18 17 16 16 15 15 16 15 16 17 17 17 17 15 14 14 13 13 13 12 12 12 11 10 9 8 7 7 6 6 6 6 6 7 7 8 9 9 10 9 9 8 8 7 7 7 7 6 6 5 5 5 4 3 2 2 2 2 1 2 2 1 1 1 1 1 1 1 1 2 2 1 2 1 1 1 2 3
19 21 21 21 21 21 20 19 18 17 17 17 16 16 16 17 17 17 17 17 16 16 15 14 14 13 13 12 12 12 11 11 10 8 7 7 6 5 5 5 5 6 7 8 8 9 9 9 9 8 7 7 8 8 7 7 7 6 6 4 3 3 3 2 2 2 3 3 3 2 2 2 2 1 1 1 1 1 2 2 2 2 2 1 2
19 20 22 22 21 21 21 19 18 18 18 17 17 17 17 17 18 17 16 16 16 16 17 16 15 14 14 13 13 13 12 12 11 8 7 7 6 5 4 4 4 5 6 7 7 8 8 8 9 8 8 8 8 8 8 7 7 7 6 5 4 5 4 3 3 2 3 4 4 4 3 3 3 3 3 3 3 3 3 3 3 4 4 3 1
21 20 22 22 22 20 20 20 19 19 18 17 17 18 19 20 19 17 17 16 16 16 17 17 16 15 15 14 14 13 13 12 11 10 9 8 6 6 5 5 5 5 5 7 8 8 8 8 8 8 8 8 8 8 8 7 8 7 7 7 6 6 5 5 4 4 4 4 5 5 5 4 4 4 4 4 3 3 3 3 4 5 6 5 4
25 20 21 21 21 21 20 20 20 19 18 17 18 19 22 22 20 18 17 17 16 16 17 16 16 16 15 15 15 14 14 13 12 12 10 8 8 7 6 6 6 6 6 6 7 8 8 8 8 8 8 8 8 8 8 8 8 8 7 8 7 6 6 6 5 4 5 5 5 6 5 5 5 5 4 4 4 4 3 4 4 5 5 6 7
29 23 21 20 20 20 20 20 19 19 17 18 20 21 23 24 21 19 18 18 17 16 17 16 16 16 15 15 15 15 14 13 12 11 10 9 9 8 7 6 6 6 5 5 7 7 8 8 8 8 8 9 8 8 8 8 8 8 8 8 7 7 7 7 5 5 5 5 5 5 5 5 5 6 5 4 6 6 4 4 5 5 5 6 8
33 29 25 23 19 16 18 19 18 18 18 19 21 23 23 24 23 21 19 19 18 16 17 17 16 15 15 15 16 15 14 13 12 11 10 10 10 8 7 7 6 6 6 7 7 7 8 8 8 8 8 9 9 9 9 9 9 8 8 8 9 9 8 7 6 6 5 5 6 5 5 5 5 6 5 5 7 7 5 5 5 5 6 7 8
31 34 34 31 26 20 18 19 17 16 17 18 22 23 24 25 25 23 21 19 18 16 17 17 16 16 15 15 15 16 15 14 13 12 11 11 10 9 8 8 7 7 8 8 7 7 7 8 8 8 8 8 8 8 9 9 9 8 7 7 8 9 8 7 7 6 5 6 7 6 6 6 6 6 6 6 7 7 6 6 7 7 7 8 9
24 32 38 38 35 28 20 18 16 15 16 18 21 23 24 24 24 24 22 20 19 18 17 17 16 16 16 16 15 15 15 15 15 14 13 12 11 9 9 8 8 7 7 7 7 7 8 7 7 7 7 8 8 8 8 8 8 8 7 7 7 8 8 7 7 6 6 7 8 7 7 6 6 6 6 6 7 7 7 7 8 8 9 9 9
20 25 35 39 38 35 27 19 16 14 13 16 19 20 21 22 22 23 23 22 21 19 18 18 17 16 16 16 16 15 15 15 15 15 14 13 12 11 10 9 8 8 8 8 8 8 8 8 8 8 8 9 9 9 9 8 8 8 8 8 8 9 9 7 8 8 7 8 8 7 7 7 6 6 6 6 7 7 8 7 8 8 8 8 9
20 21 30 36 37 35 32 25 19 15 13 13 15 15 16 18 19 19 20 22 21 20 18 18 18 17 16 16 16 15 15 15 15 15 15 14 13 12 11 10 9 9 9 8 8 8 9 9 8 9 9 10 10 9 9 9 8 8 8 7 7 8 8 8 8 9 8 8 8 7 7 6 6 6 6 6 6 6 6 7 7 7 7 6 8
19 18 23 31 32 30 30 29 23 17 16 16 16 16 15 16 17 17 18 21 21 20 19 20 20 19 17 16 16 16 16 15 15 15 15 15 14 13 13 12 11 10 9 10 9 9 10 10 9 10 10 10 10 9 9 9 9 8 8 8 7 8 8 7 7 8 8 7 8 7 7 6 5 5 6 5 5 6 6 6 6 7 7 7 8
18 18 18 23 26 27 28 29 25 21 20 20 20 19 18 17 16 17 18 19 20 19 19 21 22 21 18 17 16 16 16 15 15 15 15 15 14 14 14 14 13 11 10 11 10 10 12 12 10 11 11 10 10 10 9 9 9 9 8 8 9 9 8 8 7 7 7 7 7 7 6 6 6 6 6 5 5 6 6 6 7 7 8 8 8
15 17 17 17 20 23 25 27 26 24 23 23 23 23 22 20 19 18 18 19 20 19 19 22 23 22 20 18 16 16 16 16 15 15 15 15 15 15 14 14 14 13 12 12 12 12 13 13 12 11 11 11 11 10 10 10 9 9 9 8 9 9 9 8 8 8 8 8 8 7 6 6 6 6 6 5 6 6 6 6 6 7 7 8 9
11 12 13 13 16 19 21 24 26 26 25 25 25 25 24 23 22 21 19 19 20 20 19 20 22 22 22 20 18 16 16 16 16 15 15 15 15 15 15 15 15 15 14 13 13 13 13 13 13 12 11 11 11 11 12 11 10 9 9 9 9 9 9 9 8 8 9 9 8 8 7 7 7 7 6 6 7 7 7 7 7 7 8 8 9
9 9 9 10 13 15 17 20 22 23 24 25 26 27 26 26 25 23 22 21 22 22 21 20 20 21 21 21 20 19 17 16 15 15 15 15 15 15 15 15 15 15 15 15 15 14 14 14 13 13 12 12 12 12 13 13 12 11 10 10 9 9 9 9 9 9 9 9 9 8 8 8 8 8 7 7 7 7 7 7 7 8 8 8 8
8 7 7 8 9 9 12 16 18 20 20 19 22 25 27 29 29 27 25 25 23 22 22 21 20 20 21 22 21 20 19 18 16 16 16 15 15 15 15 15 15 15 16 16 16 15 15 14 14 13 13 13 14 14 13 13 13 12 11 11 10 10 9 9 9 9 9 9 9 9 9 8 8 9 9 8 8 8 7 7 7 8 8 9 9
8 7 6 6 5 5 6 10 14 17 17 15 16 18 21 24 27 27 28 29 28 26 25 24 22 21 22 22 22 21 20 19 18 18 18 18 17 17 17 17 16 16 16 16 16 16 15 14 14 15 14 14 14 13 13 14 13 12 12 11 11 10 10 10 10 9 9 10 10 10 9 9 10 12 11 10 10 11 10 10 9 9 10 10 10
9 8 7 6 6 5 4 4 8 11 13 14 15 16 17 18 20 21 23 26 28 30 31 30 27 24 22 22 23 24 23 20 19 19 19 20 19 19 18 18 18 17 17 17 17 17 16 15 15 16 16 16 14 14 15 16 15 13 12 11 11 11 11 11 10 10 10 9 10 10 10 11 14 14 13 12 12 12 12 12 12 12 12 12 12
10 9 8 7 7 6 5 4 4 5 9 13 15 15 16 16 16 16 17 19 22 24 26 28 28 27 25 24 24 25 25 23 21 19 19 20 21 19 19 19 19 19 18 18 19 18 17 16 15 16 16 16 14 14 17 17 16 15 14 12 12 12 12 12 11 11 10 10 10 10 10 12 14 13 11 12 13 13 13 14 14 14 14 14 14
11 10 10 10 8 7 7 7 7 7 9 11 12 13 14 15 16 16 16 17 18 19 20 21 23 24 24 25 25 26 27 26 23 21 20 20 20 20 20 19 20 20 19 19 20 20 19 17 15 15 15 15 14 16 18 17 16 16 16 15 14 12 12 12 12 11 11 11 11 11 11 11 12 13 13 13 14 14 14 14 15 15 15 16 16
11 11 12 12 12 10 9 9 8 8 8 9 9 10 11 13 14 14 15 17 17 19 19 20 20 20 21 23 26 27 29 30 29 26 24 22 21 21 21 20 21 20 19 19 20 20 21 19 16 15 14 14 15 17 18 17 16 16 17 18 17 15 13 12 12 12 12 12 12 12 12 12 12 15 15 14 15 15 14 14 15 15 15 15 15
11 11 11 12 13 13 12 11 11 10 8 7 6 6 7 8 10 11 13 15 17 18 19 20 21 21 21 22 24 25 27 29 30 29 28 27 25 23 21 20 20 20 19 19 19 18 19 19 19 18 16 15 17 18 19 18 18 17 17 18 19 18 16 14 14 13 12 12 13 14 14 13 13 15 16 16 16 16 16 16 16 15 16 16 16
12 12 11 11 12 12 12 12 12 11 10 9 9 8 7 6 4 5 7 10 13 15 17 18 20 22 22 22 23 23 24 26 28 28 27 27 26 26 23 21 20 19 19 18 17 16 17 18 19 19 17 18 21 21 20 19 18 18 17 17 18 19 18 16 15 16 16 15 15 15 15 15 16 17 18 18 17 17 18 18 18 18 18 17 16
13 13 13 13 12 13 13 13 12 11 10 10 10 10 9 9 8 5 4 2 2 4 6 10 14 17 19 21 23 22 21 21 23 24 25 26 25 25 24 22 21 21 20 19 18 17 16 17 17 15 15 20 24 23 21 20 20 19 17 16 16 17 18 17 16 18 19 18 18 18 17 17 18 20 21 20 19 19 19 19 19 19 18 17 16
14 15 15 15 15 17 18 17 16 14 13 12 11 11 11 12 11 8 7 6 5 5 5 3 2 3 8 14 20 22 23 22 22 21 23 25 26 26 27 26 23 21 21 21 20 18 17 19 18 16 17 22 24 21 20 20 20 19 17 16 15 15 16 17 17 19 21 20 21 21 20 18 17 20 22 20 19 19 19 19 20 19 19 20 20
15 16 16 16 17 18 18 18 18 17 16 15 13 13 14 14 13 10 10 10 8 8 8 8 8 8 6 6 8 13 18 20 21 21 21 23 26 27 28 28 27 24 22 21 20 20 22 24 23 20 20 22 21 19 19 19 19 19 18 16 16 16 15 15 14 17 18 18 20 22 20 18 18 20 21 20 19 19 19 19 20 21 22 23 22
15 15 15 15 16 15 15 16 16 15 15 14 13 13 14 15 14 13 14 14 14 13 12 12 11 9 7 7 7 6 6 8 11 14 16 19 22 24 25 27 29 27 24 21 20 22 23 22 19 18 18 20 19 18 18 18 18 19 17 17 16 15 13 12 11 12 11 11 15 18 17 16 18 19 19 19 19 20 20 21 22 23 23 22 21
14 14 14 14 14 13 13 14 14 13 12 11 11 12 12 13 13 12 13 15 15 14 13 13 14 12 10 9 8 7 7 6 5 6 8 11 14 17 20 24 27 28 26 23 22 23 22 16 13 14 18 20 19 18 18 18 19 19 18 18 16 14 12 11 10 12 12 9 11 14 13 14 16 16 17 19 20 21 22 23 24 24 23 22 22
14 14 14 12 11 11 11 12 13 12 11 10 10 10 11 11 10 10 11 12 12 13 12 11 12 13 13 12 11 10 9 8 7 5 4 5 8 10 12 17 21 22 22 21 21 23 21 17 16 18 20 20 19 18 18 18 18 18 17 17 16 14 14 12 11 13 14 11 11 10 9 12 16 16 16 17 19 20 21 22 22 23 22 22 21
14 13 13 11 10 10 10 11 12 11 11 10 9 10 10 10 9 10 10 10 10 10 10 10 10 10 11 11 11 11 11 11 11 10 7 5 4 4 4 6 9 10 10 11 13 15 15 16 18 20 19 19 18 17 17 17 18 17 17 16 16 16 16 15 16 18 15 11 11 11 10 14 17 16 15 16 17 18 19 19 18 18 18 18 18
13 12 11 10 10 10 10 10 10 10 11 10 9 10 10 10 10 11 10 9 9 9 9 8 8 8 8 8 8 8 9 9 10 10 9 8 7 7 5 4 2 3 4 5 7 9 10 12 15 16 16 16 16 15 14 14 13 13 13 13 14 15 15 16 19 19 15 12 13 14 14 15 16 14 14 15 15 16 15 15 16 16 16 16 17
13 12 11 9 9 9 9 9 9 9 10 10 9 9 9 9 10 11 10 9 9 9 9 8 7 6 7 7 6 5 6 6 7 7 7 7 6 6 6 6 6 6 5 5 6 6 6 7 9 10 10 10 10 10 10 9 9 9 9 10 11 12 12 13 15 15 12 12 14 14 13 13 13 12 13 14 14 15 14 12 14 17 18 18 18
12 12 11 8 7 7 8 8 8 8 8 9 9 9 8 8 9 9 8 8 8 8 8 7 6 5 5 5 5 5 4 4 5 5 5 5 5 4 3 3 4 5 5 4 5 6 5 4 4 4 4 4 5 6 6 6 6 6 6 7 9 10 10 10 10 10 9 10 11 12 12 12 11 11 12 13 14 15 15 13 13 17 20 20 19
13 12 10 8 8 7 7 7 7 7 7 8 8 8 7 7 7 7 6 6 6 6 6 5 5 5 4 5 5 4 4 3 3 3 2 3 4 3 2 3 3 3 2 2 4 4 3 3 2 1 1 2 2 3 3 4 4 5 5 6 7 8 7 8 8 8 8 9 10 11 12 12 12 13 14 15 15 16 16 16 17 19 19 18 17
14 12 10 9 9 7 6 6 6 6 6 6 7 6 6 7 6 6 5 5 5 5 4 4 3 3 3 3 3 3 3 2 2 2 1 1 2 2 3 4 4 4 3 2 3 4 3 3 4 3 4 3 3 4 4 5 6 6 8 9 10 10 9 10 10 11 11 12 13 14 15 15 16 16 16 16 16 16 16 16 17 17 15 13 14
14 11 10 10 8 6 5 4 4 4 5 5 5 5 5 5 4 4 4 5 5 4 4 4 4 3 2 2 2 3 3 2 3 4 3 4 4 4 5 5 5 6 6 6 6 6 6 6 7 7 5 4 6 7 6 7 8 9 11 12 13 13 13 13 14 15 15 16 16 17 17 17 16 16 15 15 14 14 14 14 13 12 10 9 10
13 11 10 9 7 5 3 2 2 3 3 3 3 3 4 4 3 4 4 5 4 5 5 6 6 5 4 4 3 2 3 2 2 4 5 5 6 7 7 7 7 8 8 9 9 10 9 9 10 10 8 6 8 10 10 10 12 13 13 14 15 16 16 17 18 18 18 17 17 16 14 13 12 12 12 11 9 9 9 9 8 8 6 4 5
14 13 11 9 7 4 1 1 2 2 2 2 3 3 3 3 3 3 4 4 4 5 5 5 5 4 3 4 4 1 2 3 2 0 2 4 6 7 8 8 9 9 10 10 11 11 11 10 11 12 12 11 12 13 13 14 15 15 16 16 17 17 18 18 18 17 17 16 14 12 9 7 7 6 6 5 4 5 5 5 5 6 5 3 4
17 14 11 8 6 3 2 2 2 1 0 1 2 2 2 2 2 3 3 3 3 5 4 3 2 1 2 3 3 1 1 2 2 2 2 2 3 5 7 8 9 9 10 11 11 11 12 12 13 13 14 14 15 15 15 16 16 16 16 16 16 16 16 15 14 14 12 10 8 7 5 5 5 4 3 4 4 4 4 5 5 5 5 4 5
Wind_Direction
173 174 174 175 174 173 174 174 177 178 178 182 183 181 179 179 183 183 180 180 179 173 166 160 158 157 153 154 156 154 156 153 150 149 149 158 158 152 150 149 150 147 142 140 140 140 141 140 139 135 130 130 132 132 126 123 106 78 69 63 46 46 49 49 72 80 86 98 100 96 89 83 74 71 79 93 97 100 94 90 92 82 70 71 72
173 174 175 176 174 174 175 176 179 181 183 184 182 185 183 182 188 189 187 184 181 181 175 168 164 160 157 157 158 160 158 150 152 155 155 167 165 156 156 157 155 155 153 150 147 144 139 138 138 134 132 133 127 125 121 119 106 81 67 57 46 59 60 56 82 90 83 97 109 107 99 89 76 68 79 91 97 102 101 89 86 84 80 78 77
175 176 177 177 175 175 177 178 183 185 186 187 184 188 187 184 192 195 194 190 185 184 180 174 167 162 161 159 156 158 157 156 161 163 158 164 168 163 163 164 162 161 160 158 152 150 146 143 141 139 139 136 130 128 124 118 102 82 71 65 54 64 70 63 75 82 80 94 103 104 110 99 82 75 80 86 93 97 99 97 89 83 86 82 75
178 180 178 179 178 177 180 180 184 186 188 189 188 190 190 191 194 196 198 196 192 186 179 177 171 166 166 162 160 161 163 169 169 167 165 166 172 172 170 169 168 165 164 164 159 158 155 149 148 147 145 140 134 127 118 107 94 89 84 75 62 68 79 71 67 68 77 96 96 94 106 95 84 87 83 80 87 93 91 93 93 88 84 78 74
181 184 181 181 181 180 183 183 184 187 190 191 190 190 192 196 197 196 198 198 195 188 178 177 174 169 170 168 167 165 167 173 170 172 177 176 177 179 180 176 174 171 170 169 167 167 164 158 155 150 149 147 136 125 125 125 111 105 98 78 61 67 81 80 72 65 74 84 79 80 91 74 64 75 82 76 73 84 88 83 83 85 84 80 78
187 188 186 183 183 182 184 185 187 189 192 194 193 192 193 199 200 198 199 198 197 191 182 179 177 174 173 171 169 166 169 175 172 177 183 180 180 185 188 185 182 180 178 179 176 174 172 166 161 156 156 155 148 143 139 128 115 114 109 90 70 74 81 81 80 70 66 68 64 69 76 63 49 47 73 85 72 68 81 82 77 78 86 85 79
193 192 190 187 184 184 185 187 190 192 194 195 194 193 196 203 203 199 200 201 199 195 189 185 181 179 176 170 172 172 172 176 176 177 177 179 184 190 194 193 190 186 187 191 187 182 179 173 169 163 161 160 161 157 141 128 143 153 140 122 105 91 83 79 80 72 64 65 65 69 68 64 61 52 63 88 79 68 73 78 79 82 88 82 70
193 194 193 190 186 184 186 187 191 193 193 195 195 194 199 206 206 200 201 203 202 199 195 191 185 183 180 174 178 176 174 181 179 176 179 182 186 189 195 200 200 194 194 197 194 191 185 180 179 170 168 169 165 159 150 158 176 167 152 129 112 99 87 80 77 72 69 68 66 69 62 59 64 60 63 72 71 81 88 83 82 85 80 65 56
192 194 193 192 189 187 188 187 190 192 193 195 195 193 201 208 207 203 202 202 203 202 200 198 192 187 185 183 186 182 176 178 179 182 189 191 193 196 195 201 208 204 201 200 198 198 193 187 185 178 178 176 166 168 176 177 178 171 161 140 118 111 103 91 76 70 71 64 55 64 63 53 59 63 66 69 67 79 94 96 94 92 77 46 37
193 194 193 193 191 190 190 190 190 192 193 195 194 193 200 207 207 206 204 201 202 202 203 203 197 192 192 192 193 191 187 182 181 192 197 196 201 205 201 202 210 210 208 207 204 203 199 192 191 189 189 186 179 184 188 184 185 180 172 165 157 146 141 129 80 56 67 71 51 55 57 47 52 55 56 70 76 71 78 102 102 95 96 66 30
195 194 194 193 192 193 193 192 193 194 194 193 193 194 198 205 207 207 207 205 202 201 203 204 201 198 198 198 196 193 195 193 190 198 201 199 205 212 208 203 207 211 212 213 212 208 202 195 194 199 201 197 194 192 187 184 187 194 197 185 171 161 167 170 158 277 295 51 45 40 43 38 45 45 43 53 63 63 32 60 80 60 80 83 42
197 195 195 194 194 196 196 195 195 196 196 195 195 196 198 205 208 207 208 207 203 202 202 201 203 203 202 202 200 195 196 197 196 200 202 203 210 214 207 200 204 213 215 217 217 215 210 206 202 205 208 205 202 200 196 192 186 193 205 198 188 185 178 185 193 223 263 263 267 282 308 337 357 9 31 43 40 54 14 354 43 41 45 78 50
198 196 196 197 197 197 198 199 199 197 199 200 198 198 199 206 210 209 209 206 203 204 202 200 202 205 205 204 203 201 199 200 201 202 206 209 215 214 206 202 204 211 217 218 217 219 218 215 211 209 210 209 207 207 205 199 190 191 200 199 206 218 201 198 207 217 239 239 245 261 266 280 282 286 293 282 307 339 309 308 335 320 280 324 32
201 198 197 199 199 199 199 201 201 201 203 204 203 201 202 209 212 211 212 207 203 204 203 202 202 204 206 205 206 206 203 204 203 202 209 214 216 216 210 209 212 211 213 214 212 216 219 217 213 210 210 211 210 209 209 205 197 197 199 197 208 229 222 209 215 231 242 237 238 255 262 271 274 266 272 275 278 289 294 306 323 308 291 291 292
201 201 200 199 199 199 199 201 204 205 204 205 205 204 209 217 216 212 214 210 205 205 205 204 203 203 205 205 206 207 206 207 206 204 208 211 212 215 211 205 210 218 214 209 208 211 214 213 213 211 209 212 211 208 208 207 205 204 206 205 212 230 230 219 220 224 234 235 233 245 254 265 278 273 267 277 284 294 309 321 329 321 309 304 295
200 201 201 200 199 199 198 201 206 208 207 205 204 208 217 223 221 214 216 215 209 206 207 207 206 205 205 206 207 208 208 207 209 210 210 211 209 209 213 205 204 215 216 209 208 210 211 211 211 212 211 210 211 209 207 209 210 208 212 214 214 228 235 227 224 226 230 239 241 247 253 258 269 267 261 275 281 283 306 315 319 326 320 313 307
198 198 198 196 197 198 200 204 207 209 209 206 209 218 226 227 225 219 218 220 216 211 210 210 210 209 209 208 208 210 211 210 212 215 212 217 218 208 209 214 211 215 213 211 215 211 209 208 207 212 215 212 210 210 209 210 211 209 217 221 213 221 234 229 226 229 230 237 245 251 256 257 261 263 261 270 273 270 286 305 308 318 318 316 311
195 196 195 193 193 195 201 206 210 212 212 211 217 226 231 231 229 225 222 223 222 217 215 215 213 213 213 212 210 211 214 215 216 218 213 216 223 216 212 214 213 212 205 207 216 213 208 208 206 210 215 213 211 213 213 213 212 211 218 223 219 223 234 232 229 231 232 234 236 240 247 250 254 262 261 264 271 272 278 291 296 302 307 312 312
196 202 206 206 203 203 205 207 209 211 209 213 225 231 231 232 232 230 228 227 224 219 219 221 218 217 217 217 215 214 216 217 217 219 218 215 217 218 217 214 210 213 214 211 211 211 213 211 208 213 219 220 218 219 222 221 216 214 218 227 234 238 237 232 232 234 236 240 238 238 242 243 245 251 254 256 265 270 271 277 284 289 295 300 303
191 204 211 212 209 206 203 202 204 208 209 213 227 236 235 234 235 234 232 231 229 223 220 223 221 218 220 222 221 219 218 219 219 218 219 218 216 214 215 216 211 211 218 219 212 210 216 214 209 213 218 224 225 222 226 231 224 219 216 216 233 246 240 231 233 231 232 243 244 241 243 245 245 247 253 257 261 266 268 271 276 282 290 295 296
185 197 206 209 210 209 206 201 194 195 207 215 224 235 238 236 236 238 238 236 234 228 223 225 224 219 221 224 224 224 223 223 223 223 222 220 219 215 212 214 215 213 214 219 219 216 217 215 210 211 213 220 227 223 222 230 229 225 222 214 223 239 238 231 233 230 229 239 244 242 242 244 247 246 246 253 260 267 271 273 277 282 288 289 288
189 190 198 204 208 211 212 211 203 193 200 212 219 224 229 231 230 232 239 239 235 229 224 227 229 225 224 226 224 225 228 227 224 225 225 222 221 218 213 210 214 220 219 218 220 221 223 219 212 216 217 220 228 227 222 225 227 227 228 223 230 242 239 232 236 235 232 239 244 243 241 244 253 255 249 250 258 264 270 273 274 280 286 285 285
189 184 191 200 205 209 215 218 216 214 215 218 222 221 220 227 227 226 234 238 237 233 226 229 235 234 231 230 227 224 226 227 224 223 223 223 221 220 218 214 213 219 223 222 218 219 227 226 218 222 226 224 228 229 223 223 226 225 223 219 224 236 237 234 237 240 239 241 245 244 243 244 248 251 249 249 255 260 264 268 268 273 278 280 284
183 180 183 195 201 206 214 217 216 221 223 221 224 225 223 227 230 231 236 240 241 239 233 234 240 242 237 233 231 227 225 225 225 223 221 220 219 219 220 217 214 216 220 222 219 217 228 233 225 226 231 228 229 229 225 225 228 229 227 223 224 230 233 232 232 237 239 240 243 246 247 244 241 244 248 249 254 257 262 268 272 276 280 283 283
170 173 176 185 191 198 207 211 212 217 218 217 222 227 228 229 231 232 236 241 243 243 241 241 245 247 242 235 231 229 226 224 224 223 222 221 219 218 219 218 216 216 216 219 219 217 225 232 227 225 229 229 229 229 227 225 225 230 231 228 230 233 233 233 232 235 238 239 240 242 244 245 245 248 253 253 253 256 263 269 272 274 281 285 287
151 165 173 181 190 197 203 207 212 216 218 220 225 228 229 230 232 231 232 238 241 241 241 244 246 248 246 241 234 229 225 224 223 223 223 223 221 219 220 220 218 218 216 216 218 217 222 229 226 222 223 226 228 229 229 227 223 226 229 226 228 233 235 236 236 236 240 243 242 241 241 243 243 245 249 251 254 258 263 267 271 276 281 286 290
144 156 163 173 186 196 203 207 212 218 223 228 233 233 231 232 236 236 234 236 239 238 237 239 244 247 246 241 237 232 229 226 223 223 223 223 224 222 222 223 222 221 219 216 217 218 220 225 225 222 221 223 226 226 230 232 226 222 226 226 226 230 233 237 238 236 237 240 241 242 241 242 244 246 245 248 254 261 264 265 271 279 281 283 287
135 141 145 160 172 178 191 203 209 215 221 227 232 235 237 239 242 241 235 231 232 233 232 233 238 242 241 238 235 233 232 231 229 228 225 223 222 222 221 223 222 221 220 219 218 219 220 222 223 223 222 224 228 228 229 233 231 228 229 228 227 229 230 234 238 238 237 238 239 242 243 243 246 249 246 244 246 250 254 259 266 271 273 277 280
122 118 118 132 141 145 176 202 211 214 215 216 222 228 233 238 241 241 237 232 232 233 232 234 236 237 235 234 232 230 230 233 234 235 234 229 225 222 221 222 223 221 220 220 219 220 221 221 222 224 223 223 226 228 228 229 229 230 232 233 234 234 233 234 236 237 237 240 242 243 244 241 241 247 251 248 246 247 248 249 254 259 265 270 274
115 111 106 109 114 120 143 189 214 217 216 218 221 223 227 233 236 237 236 234 235 236 236 237 238 237 234 231 229 227 227 229 233 235 236 233 229 227 226 225 226 225 222 220 219 219 220 221 223 225 226 225 224 225 228 228 223 222 225 229 234 235 232 231 233 234 235 238 242 242 244 246 247 251 256 257 255 255 254 253 254 256 257 259 262
116 111 102 99 100 101 104 123 166 191 203 213 220 223 225 227 226 227 229 230 233 236 236 235 235 236 235 231 228 228 226 226 227 231 233 232 229 229 229 229 230 231 228 225 223 222 221 221 224 226 226 227 226 228 235 234 224 219 222 225 232 236 233 230 231 236 237 237 242 242 242 252 259 260 259 261 261 259 259 261 261 261 261 261 262
112 106 100 98 101 107 114 128 151 170 184 197 208 213 215 215 213 212 214 219 225 230 231 230 231 234 234 231 229 230 230 229 228 228 229 229 229 228 229 229 229 231 233 233 231 229 226 222 223 226 225 225 225 228 236 237 225 220 223 224 229 235 237 237 237 239 241 241 243 245 243 248 257 256 253 256 261 263 265 267 268 270 271 272 273
114 109 105 105 108 115 125 136 147 162 177 189 203 214 216 217 215 210 208 212 216 219 220 224 226 227 228 228 227 228 230 232 234 234 231 230 229 229 229 229 228 229 232 233 233 234 232 226 222 220 219 222 226 228 233 233 225 223 226 226 228 231 234 239 239 238 240 241 241 243 243 243 247 253 256 259 264 268 271 272 273 275 275 278 280
115 112 110 109 110 111 114 118 117 117 129 143 157 177 192 207 219 220 218 222 224 223 223 224 224 223 224 226 227 228 230 233 236 237 235 233 231 230 231 231 228 226 229 231 231 232 234 230 225 220 216 218 224 228 232 232 226 226 230 230 231 233 235 239 242 241 241 243 243 245 247 248 251 257 262 263 264 268 272 273 275 276 276 277 277
115 113 110 108 108 108 107 105 102 100 105 112 112 113 123 137 168 201 214 224 229 231 233 234 231 227 225 225 226 229 232 235 237 237 236 235 233 233 234 235 231 226 225 228 230 230 233 233 228 223 220 221 223 226 230 230 226 227 232 233 235 237 238 240 243 245 246 246 249 251 252 253 255 257 260 263 264 267 271 274 275 277 278 278 276
111 110 108 107 108 108 105 102 99 100 101 102 100 99 100 98 96 105 118 130 190 213 227 235 236 234 231 230 229 227 227 232 236 236 236 234 232 233 233 232 231 230 228 227 228 227 228 229 224 217 219 224 226 227 229 229 226 226 230 235 238 240 240 239 242 247 250 251 251 252 253 256 258 258 259 263 266 268 270 272 274 276 278 277 277
110 111 111 112 112 108 103 100 100 101 101 102 105 104 104 102 97 97 97 94 95 98 102 124 155 193 215 224 229 229 227 229 231 233 234 233 232 234 236 232 229 230 230 229 227 222 221 223 217 206 212 224 227 228 229 228 227 227 229 235 240 241 242 240 239 244 249 249 250 251 252 255 257 259 260 264 268 271 272 273 275 276 277 278 280
114 114 112 110 107 103 100 97 96 94 93 96 101 102 102 102 100 101 106 107 107 102 97 97 94 95 120 159 195 214 221 227 229 228 229 231 231 234 234 230 226 225 227 229 227 223 222 223 216 204 210 226 230 231 231 230 229 229 230 235 239 242 244 241 241 248 252 251 251 251 250 251 255 261 266 269 271 274 275 277 279 280 281 283 285
114 113 112 110 107 104 100 95 91 88 87 89 93 96 98 99 98 101 104 103 100 94 89 87 89 94 105 113 117 134 167 202 216 216 218 221 223 226 227 225 225 224 222 222 224 225 224 221 213 206 216 228 233 234 234 234 234 231 231 233 234 236 240 237 235 243 244 244 252 254 253 253 257 262 267 271 273 276 278 280 281 282 284 283 281
119 118 116 113 108 103 98 94 91 88 85 84 86 91 94 95 97 97 96 95 92 87 82 80 81 80 83 94 102 107 113 130 163 186 198 199 201 209 213 215 220 222 217 212 216 222 224 221 216 218 225 229 232 235 236 237 238 237 235 236 235 233 231 228 227 232 231 235 252 260 263 263 264 269 274 278 281 282 282 283 282 280 280 277 276
130 127 121 114 110 106 100 95 93 90 87 86 86 89 91 93 97 95 88 85 82 79 74 72 74 74 75 80 86 90 95 100 105 116 150 172 177 184 187 190 199 204 202 200 205 213 221 224 220 218 222 226 229 232 234 236 239 240 239 240 240 237 231 226 227 229 224 221 226 232 249 268 273 280 286 285 285 284 282 282 280 278 278 277 279
135 131 126 121 115 108 98 90 87 85 84 81 79 85 92 96 98 94 88 82 78 75 71 67 67 70 73 76 78 82 87 89 88 90 92 99 122 149 161 176 190 189 180 180 190 200 209 213 211 212 216 221 225 229 232 236 239 241 243 245 247 250 248 244 243 237 227 222 231 239 259 275 276 280 284 283 284 285 283 282 281 280 280 281 282
140 135 133 128 120 113 105 96 92 86 81 74 69 76 87 93 92 90 86 83 78 76 74 70 67 66 69 74 75 76 83 87 86 86 85 81 85 94 89 72 68 104 125 146 165 180 191 198 204 211 215 218 222 227 231 236 239 243 250 253 254 258 260 259 260 260 257 257 264 269 272 271 269 270 273 276 279 282 283 286 288 288 285 285 287
142 140 138 136 130 122 113 102 91 80 75 71 66 68 75 80 83 83 84 83 79 75 73 70 68 65 66 70 71 69 73 75 77 85 90 89 90 90 83 77 85 99 113 128 139 151 171 188 202 216 219 218 222 226 227 231 237 243 253 258 257 257 257 259 269 279 276 264 267 275 275 269 266 265 267 271 274 275 276 281 292 296 295 293 294
147 149 144 140 133 120 108 96 81 70 67 66 65 66 67 70 73 72 74 75 76 77 76 75 75 74 70 67 62 54 52 60 70 79 84 93 105 104 84 79 94 109 127 149 147 138 141 160 179 202 219 216 218 228 231 233 239 246 256 260 257 255 256 257 264 276 278 272 274 279 277 272 267 264 266 273 277 279 280 283 291 295 294 295 299
159 160 154 142 132 118 103 90 76 68 61 58 60 62 63 66 67 63 60 59 60 66 71 75 82 85 85 86 80 64 45 40 51 62 65 90 105 104 101 110 115 115 126 167 172 161 169 198 206 221 250 223 205 225 239 238 245 261 272 272 271 270 269 271 272 277 283 285 285 284 285 287 286 285 287 289 290 292 293 293 293 292 293 295 296
172 171 161 147 139 130 114 97 82 74 63 54 53 50 50 58 62 55 47 42 40 43 47 55 71 85 101 114 120 117 104 86 79 79 86 166 150 142 156 164 169 175 175 174 174 172 190 227 248 260 269 266 249 244 246 246 253 268 275 278 285 290 287 286 289 292 295 295 295 295 295 295 295 296 296 295 295 295 293 290 289 289 290 290 291
182 176 162 151 150 147 126 97 76 73 72 65 59 50 46 55 57 40 29 31 37 43 42 42 46 48 69 111 134 135 128 149 193 201 208 217 209 199 197 196 194 192 193 195 196 193 196 209 224 233 243 257 254 249 253 257 260 268 273 274 279 284 286 287 288 291 294 296 295 295 295 296 298 297 295 296 297 295 293 291 285 281 279 284 296
191 183 173 168 171 167 130 78 51 56 64 63 56 45 39 37 25 12 15 20 29 42 49 55 58 51 48 66 78 105 127 133 218 236 229 221 219 221 222 222 217 211 209 211 213 215 216 219 227 230 227 231 245 251 255 259 262 266 270 271 274 279 281 284 287 291 294 296 296 299 302 303 305 305 305 309 307 301 305 305 295 290 293 291 296
199 191 186 183 183 181 149 7 11 34 44 36 31 30 31 24 7 5 15 17 34 58 67 73 80 78 76 77 71 71 156 133 107 252 253 243 235 231 230 232 231 229 227 225 226 229 230 233 241 243 238 240 254 262 264 264 267 270 272 274 278 282 284 287 289 291 294 297 302 311 314 308 305 309 312 311 297 291 305 305 292 303 314 293 285
209 205 202 201 198 203 254 294 311 346 17 12 14 16 20 21 16 25 32 28 56 88 98 99 100 117 138 125 110 100 202 178 175 183 203 249 262 251 243 240 239 240 240 240 240 240 240 242 248 253 252 254 260 266 270 271 272 275 277 280 282 285 287 290 291 292 296 302 308 317 317 308 308 305 290 285 285 287 294 290 282 291 293 282 290